When you browse on this site, cookies collect data to enhance your experience and personalize the content and advertising you see.
Visit our Privacy Policy to learn more. By continuing to use the site, you agree to this use of cookies and data.
  • In Austria
  • List of Countries
  • For 7 days
  • Water Temperature
  • Satellite Maps
  • Weather Map
  • News
  • Weather Widgets
  • user-avatar
    Login

    Hourly Weather Ischgl

    Today, 18 January, Friday

    Time Temperature Precipitation Wind Pressure Humidity
    00:00 -13°C° 0.4 mm 3 mps 564 mmHg 96%
    01:00 -14°C° 0 mm 3 mps 564 mmHg 96%
    02:00 -14°C° 0.1 mm 2 mps 563 mmHg 96%
    03:00 -15°C° 0.1 mm 2 mps 563 mmHg 96%
    04:00 -16°C° 0.1 mm 2 mps 563 mmHg 96%
    05:00 -16°C° 0.1 mm 2 mps 563 mmHg 95%
    06:00 -16°C° 0.1 mm 2 mps 563 mmHg 95%
    07:00 -16°C° 0 mm 2 mps 563 mmHg 94%
    08:00 -16°C° 0.1 mm 2 mps 564 mmHg 93%
    09:00 -15°C° 0.1 mm 2 mps 565 mmHg 93%
    10:00 -15°C° 0.1 mm 2 mps 565 mmHg 92%
    11:00 -14°C° 0 mm 2 mps 565 mmHg 88%
    12:00 -14°C° 0 mm 2 mps 566 mmHg 85%
    13:00 -13°C° 0 mm 2 mps 566 mmHg 81%
    14:00 -12°C° 0 mm 1 mps 565 mmHg 83%
    15:00 -13°C° 0 mm 1 mps 565 mmHg 84%
    16:00 -13°C° 0 mm 1 mps 565 mmHg 86%
    17:00 -15°C° 0 mm 1 mps 564 mmHg 86%
    18:00 -16°C° 0 mm 1 mps 563 mmHg 86%
    19:00 -20°C° 0 mm 2 mps 563 mmHg 86%
    20:00 -20°C° 0 mm 2 mps 563 mmHg 82%
    21:00 -20°C° 0 mm 2 mps 563 mmHg 79%
    22:00 -21°C° 0 mm 3 mps 564 mmHg 76%
    23:00 -21°C° 0 mm 3 mps 564 mmHg 75%

    Tomorrow, 19 January, Saturday

    Time Temperature Precipitation Wind Pressure Humidity
    00:00 -21°C° 0 mm 3 mps 564 mmHg 74%
    01:00 -21°C° 0 mm 3 mps 564 mmHg 73%
    02:00 -21°C° 0 mm 3 mps 564 mmHg 74%
    03:00 -19°C° 0 mm 3 mps 564 mmHg 75%
    04:00 -19°C° 0 mm 3 mps 564 mmHg 76%
    05:00 -18°C° 0 mm 2 mps 564 mmHg 76%
    06:00 -17°C° 0 mm 2 mps 564 mmHg 76%
    07:00 -17°C° 0 mm 2 mps 564 mmHg 76%
    08:00 -16°C° 0 mm 2 mps 565 mmHg 78%
    09:00 -14°C° 0 mm 2 mps 565 mmHg 79%
    10:00 -13°C° 0 mm 2 mps 566 mmHg 80%
    11:00 -12°C° 0 mm 2 mps 566 mmHg 78%
    12:00 -9°C° 0 mm 1 mps 566 mmHg 76%
    13:00 -8°C° 0 mm 1 mps 567 mmHg 74%
    14:00 -8°C° 0 mm 1 mps 566 mmHg 78%
    15:00 -9°C° 0 mm 1 mps 566 mmHg 81%
    16:00 -9°C° 0 mm 1 mps 565 mmHg 85%
    17:00 -11°C° 0 mm 1 mps 564 mmHg 86%
    18:00 -12°C° 0 mm 1 mps 564 mmHg 86%
    19:00 -16°C° 0 mm 2 mps 563 mmHg 87%
    20:00 -16°C° 0 mm 2 mps 563 mmHg 87%
    21:00 -17°C° 0 mm 2 mps 562 mmHg 86%
    22:00 -18°C° 0 mm 2 mps 562 mmHg 86%
    23:00 -18°C° 0 mm 2 mps 562 mmHg 85%

    Day after tomorrow, 20 January, Sunday

    Time Temperature Precipitation Wind Pressure Humidity
    00:00 -18°C° 0 mm 2 mps 562 mmHg 84%
    01:00 -19°C° 0 mm 2 mps 561 mmHg 83%
    02:00 -19°C° 0 mm 2 mps 561 mmHg 82%
    03:00 -19°C° 0 mm 2 mps 561 mmHg 82%
    04:00 -17°C° 0 mm 1 mps 561 mmHg 81%
    05:00 -17°C° 0 mm 1 mps 561 mmHg 81%
    06:00 -17°C° 0 mm 1 mps 561 mmHg 80%
    07:00 -17°C° 0 mm 1 mps 561 mmHg 80%
    08:00 -15°C° 0 mm 1 mps 562 mmHg 80%
    09:00 -13°C° 0 mm 1 mps 564 mmHg 79%
    10:00 -11°C° 0 mm 1 mps 565 mmHg 79%
    11:00 -10°C° 0 mm 1 mps 565 mmHg 76%
    12:00 -9°C° 0 mm 1 mps 566 mmHg 73%
    13:00 -8°C° 0 mm 1 mps 566 mmHg 70%
    14:00 -8°C° 0 mm 1 mps 566 mmHg 76%
    15:00 -9°C° 0 mm 1 mps 565 mmHg 82%
    16:00 -9°C° 0 mm 1 mps 565 mmHg 88%
    17:00 -11°C° 0.1 mm 1 mps 565 mmHg 90%
    18:00 -12°C° 0.1 mm 1 mps 564 mmHg 93%
    19:00 -14°C° 0.1 mm 0 mps 564 mmHg 95%
    20:00 -14°C° 0 mm 0 mps 564 mmHg 95%
    21:00 -14°C° 0 mm 0 mps 564 mmHg 94%
    22:00 -15°C° 0 mm 0 mps 564 mmHg 94%
    23:00 -15°C° 0 mm 0 mps 565 mmHg 93%

    21 January, Monday

    Time Temperature Precipitation Wind Pressure Humidity
    00:00 -15°C° 0 mm 0 mps 565 mmHg 93%
    01:00 -15°C° 0 mm 0 mps 565 mmHg 93%
    02:00 -16°C° 0 mm 0 mps 565 mmHg 93%
    03:00 -16°C° 0 mm 0 mps 565 mmHg 93%
    04:00 -16°C° 0 mm 0 mps 565 mmHg 93%
    05:00 -16°C° 0 mm 0 mps 565 mmHg 93%
    06:00 -16°C° 0 mm 1 mps 565 mmHg 93%
    07:00 -16°C° 0 mm 1 mps 565 mmHg 93%
    08:00 -15°C° 0 mm 1 mps 566 mmHg 91%
    09:00 -13°C° 0 mm 1 mps 567 mmHg 90%
    10:00 -12°C° 0 mm 1 mps 568 mmHg 88%
    11:00 -11°C° 0 mm 1 mps 569 mmHg 86%
    12:00 -10°C° 0 mm 1 mps 569 mmHg 83%
    13:00 -9°C° 0 mm 1 mps 569 mmHg 80%
    14:00 -10°C° 0 mm 1 mps 569 mmHg 83%
    15:00 -10°C° 0 mm 1 mps 569 mmHg 86%
    16:00 -11°C° 0 mm 1 mps 568 mmHg 89%
    17:00 -12°C° 0 mm 1 mps 568 mmHg 91%
    18:00 -14°C° 0 mm 1 mps 567 mmHg 94%
    19:00 -16°C° 0 mm 0 mps 566 mmHg 96%
    20:00 -17°C° 0 mm 1 mps 566 mmHg 94%
    21:00 -18°C° 0 mm 1 mps 565 mmHg 91%
    22:00 -19°C° 0 mm 1 mps 565 mmHg 89%
    23:00 -19°C° 0 mm 1 mps 565 mmHg 79%

    22 January, Tuesday

    Time Temperature Precipitation Wind Pressure Humidity
    00:00 -19°C° 0 mm 1 mps 565 mmHg 69%
    01:00 -21°C° 0 mm 2 mps 564 mmHg 59%
    02:00 -21°C° 0 mm 2 mps 564 mmHg 53%
    03:00 -19°C° 0 mm 1 mps 564 mmHg 47%
    04:00 -19°C° 0 mm 1 mps 563 mmHg 41%
    05:00 -19°C° 0 mm 1 mps 563 mmHg 39%
    06:00 -20°C° 0 mm 2 mps 562 mmHg 37%
    07:00 -20°C° 0 mm 2 mps 562 mmHg 35%
    08:00 -18°C° 0 mm 2 mps 563 mmHg 42%
    09:00 -16°C° 0 mm 2 mps 563 mmHg 48%
    10:00 -14°C° 0 mm 2 mps 564 mmHg 55%
    11:00 -13°C° 0 mm 2 mps 564 mmHg 55%
    12:00 -10°C° 0 mm 2 mps 564 mmHg 56%
    13:00 -8°C° 0 mm 2 mps 564 mmHg 56%
    14:00 -9°C° 0 mm 2 mps 563 mmHg 61%
    15:00 -10°C° 0 mm 2 mps 561 mmHg 67%
    16:00 -12°C° 0 mm 2 mps 560 mmHg 72%
    17:00 -13°C° 0 mm 2 mps 559 mmHg 71%
    18:00 -14°C° 0 mm 2 mps 558 mmHg 71%
    19:00 -15°C° 0 mm 2 mps 557 mmHg 70%
    20:00 -15°C° 0 mm 2 mps 557 mmHg 69%
    21:00 -16°C° 0 mm 2 mps 556 mmHg 69%
    22:00 -16°C° 0 mm 2 mps 556 mmHg 69%
    23:00 -16°C° 0.1 mm 2 mps 555 mmHg 72%

    23 January, Wednesday

    Time Temperature Precipitation Wind Pressure Humidity
    00:00 -14°C° 0.1 mm 1 mps 555 mmHg 75%
    01:00 -14°C° 0.1 mm 1 mps 554 mmHg 78%
    02:00 -15°C° 0.4 mm 1 mps 554 mmHg 83%
    03:00 -15°C° 0.4 mm 1 mps 553 mmHg 89%
    04:00 -15°C° 0.4 mm 0 mps 553 mmHg 94%
    05:00 -15°C° 0.3 mm 1 mps 552 mmHg 94%
    06:00 -15°C° 0.3 mm 1 mps 552 mmHg 95%
    07:00 -15°C° 0.3 mm 1 mps 552 mmHg 95%
    08:00 -14°C° 0 mm 1 mps 551 mmHg 93%
    09:00 -14°C° 0 mm 1 mps 551 mmHg 91%
    10:00 -14°C° 0 mm 1 mps 551 mmHg 88%
    11:00 -13°C° 0.2 mm 1 mps 551 mmHg 89%
    12:00 -15°C° 0.2 mm 2 mps 550 mmHg 89%
    13:00 -15°C° 0.2 mm 2 mps 550 mmHg 90%
    14:00 -16°C° 0.5 mm 3 mps 549 mmHg 91%
    15:00 -17°C° 0.5 mm 3 mps 549 mmHg 93%
    16:00 -17°C° 0.5 mm 3 mps 548 mmHg 94%
    17:00 -18°C° 0.3 mm 3 mps 548 mmHg 95%
    18:00 -19°C° 0.3 mm 3 mps 547 mmHg 96%
    19:00 -19°C° 0.3 mm 3 mps 547 mmHg 97%
    20:00 -21°C° 0.3 mm 3 mps 546 mmHg 97%
    21:00 -21°C° 0.3 mm 3 mps 546 mmHg 97%
    22:00 -22°C° 0.3 mm 3 mps 546 mmHg 97%
    23:00 -22°C° 0.4 mm 3 mps 546 mmHg 96%
    Show more